Regional Weather Roundup
Issued by NWS Sterling, VA

Home | Current Version | Previous Version | Graphics & Text | Print | Product List | Glossary On
Versions: 1 2 3 4 5 6 7 8 9 10 11 12 13 14 15 16 17 18 19 20 21 22 23 24 25 26 27 28 29 30 31 32 33 34 35 36 37 38 39 40 41 42 43 44 45 46 47 48 49 50
000
ASUS41 KLWX 272110
RWRLWX

REGIONAL WEATHER ROUNDUP
NATIONAL WEATHER SERVICE BALTIMORE MD/WASHINGTON DC
400 PM EST TUE JAN 27 2015

Note: "FAIR" indicates few or no clouds below 12,000 feet
with no significant weather and/or obstructions to visibility.
 TC=TEMPERATURE CELSIUS

 * =Non NWS site. Station does not report precipitation (e.g. rain,
    snow, etc.), thunder, or fog.

DCZ001-MDZ009-015-VAZ040>042-051-053>054-272200-
WASHINGTON METRO

CITY           SKY/WX    TMP DP  RH WIND       PRES   REMARKS
WASHINGTON NAT PTSUNNY   36  21  55 NW17G24   29.83R WCI  25
DULLES         PTSUNNY   31  22  69 NW17G24   29.84R WCI  19
ANDREWS AFB    PTSUNNY   33  24  68 NW16      29.79R WCI  22
FT BELVOIR     CLOUDY    33  23  65 NW17G24   29.84R WCI  22
QUANTICO       PTSUNNY   34  22  61 N14G25    29.85R WCI  25
COLLEGE PARK*  CLOUDY    34  25  69 NW13G21   29.81R WCI  25
LEESBURG*      CLOUDY    32  28  86 N13G22    29.85R WCI  22
MANASSAS*      CLOUDY    34  25  69 NW18G24     N/A  WCI  23
GAITHERSBURG*  CLOUDY    30  19  64 NW12G21   29.85R WCI  21

$$

MDZ006>007-011-014-272200-
BALTIMORE METRO

CITY           SKY/WX    TMP DP  RH WIND       PRES   REMARKS
BWI AIRPORT    MOSUNNY   35  20  54 NW18G26   29.78R WCI  24
MD SCIENCE CTR   N/A     34  17  50 MISG      29.76S
MARTIN STATE   MOSUNNY   36  21  55 W21G26    29.79R WCI  24
ANNAPOLIS      SUNNY     36  21  54 NW10G20   29.77S WCI  28
FORT MEADE*    SUNNY     32  23  69 W15       29.81S WCI  22

$$

MDZ012-015-019>023-272200-
MARYLAND EASTERN SHORE

CITY           SKY/WX    TMP DP  RH WIND       PRES   REMARKS
OCEAN CITY     CLOUDY    33  25  72 NW10G18   29.73R WCI  25
SALISBURY      MOSUNNY   37  25  61 NW12      29.73S
BAY BRIDGE AP*   N/A     36  21  55 NW17      29.77S WCI  25
CAMBRIDGE*     MOSUNNY   37  27  65 NW9G22    29.75S
EASTON*        MOSUNNY   37  25  60 NW18G26   29.79R WCI  27

$$

MDZ017>025-272200-
SOUTHERN MARYLAND

CITY           SKY/WX    TMP DP  RH WIND       PRES   REMARKS
PATUXENT RIVER MOSUNNY   35  24  64 NW18G26   29.78R WCI  24
ST INIGOES     MOSUNNY   35  22  58 NW12G21   29.78R WCI  27
LEONARDTOWN*   MOSUNNY   32  23  69 W10G17    29.80R WCI  24

$$

MDZ003>005-272200-
NORTH CENTRAL MARYLAND

CITY           SKY/WX    TMP DP  RH WIND       PRES   REMARKS
FREDERICK*     PTSUNNY   34  21  60 NW15      29.87R WCI  24
HAGERSTOWN APT LGT SNOW  30  21  69 NW15      29.84R WCI  19
WESTMINSTER*   PTSUNNY   32  21  64 NW10G18   29.78R WCI  24

$$

MDZ501>502-272200-
WESTERN MARYLAND

CITY           SKY/WX    TMP DP  RH WIND       PRES   REMARKS
OAKLAND*       CLOUDY    16 N/A N/A NW3       29.81R FOG
CUMBERLAND*    PTSUNNY   30  18  59 NW9       29.95R WCI  22

$$

VAZ025>031-272200-
SHENANDOAH VALLEY

CITY           SKY/WX    TMP DP  RH WIND       PRES   REMARKS
WINCHESTER*    CLOUDY    32  19  59 NW17      29.85R WCI  21
FRONT ROYAL*   CLOUDY    32  23  69 NW6       29.84R
LURAY*         CLOUDY    34  27  75 N3        29.84R
NEW MARKET*    CLOUDY    31  18  60 N6        29.85R
STAUNTON*      SUNNY     33  20  58 N15       29.84R WCI  23
WAYNESBORO*    FAIR      31  20  63 N9        29.80R WCI  23

$$

WVZ021-048>050-054>055-272200-
EASTERN WEST VIRGINIA PANHANDLE

CITY           SKY/WX    TMP DP  RH WIND       PRES   REMARKS
MARTINSBURG    CLOUDY    32  20  61 NW17      29.86R WCI  21
PETERSBURG*    CLOUDY    29  13  50 NW8       29.92R WCI  21

$$

VAZ036>039-050-272200-
CENTRAL FOOTHILLS

CITY           SKY/WX    TMP DP  RH WIND       PRES   REMARKS
CHARLOTTESVILL MOSUNNY   36  21  54 N9        29.82R WCI  29
CULPEPER*      MOSUNNY   36  25  64 N13G21    29.84R WCI  27
ORANGE*        CLOUDY    36  27  69 NW6       29.84R
GORDONSVILLE*  CLOUDY    35  24  64 MISG      29.82R
WARRENTON*     PTSUNNY   36  28  74 NW13      29.83R WCI  27

$$

VAZ055>057-272200-
NORTH AND CENTRAL PIEDMONT

CITY           SKY/WX    TMP DP  RH WIND       PRES   REMARKS
FREDERICKSBRG* MOSUNNY   37  26  64 N12G17    29.83R WCI  29
STAFFORD*      PTSUNNY   34  23  64 NW18      29.87R WCI  23

$$

NCZ024-NYZ072-PAZ021-071-VAZ022-071-272200-
OTHER REGIONAL OBSERVATIONS

CITY           SKY/WX    TMP DP  RH WIND       PRES   REMARKS
NEW YORK CITY  PTSUNNY   30  17  58 VRB7      29.67S
PHILADELPHIA   PTSUNNY   34  11  38 NW22      29.72R WCI  22
PITTSBURGH     LGT SNOW  21  15  78 NW13      29.98R WCI   9
ROANOKE        SUNNY     39   3  22 NW24G30   29.84R WCI  28
RICHMOND       CLOUDY    38  24  57 N14       29.81R
RALEIGH        MOSUNNY   44  12  27 W7        29.81R

$$

ANZ530>537-272200-
MARINE OBSERVATIONS

STATION/POSITION TIME  TEMP    WIND        PRES
                       AIR SEA DIR/SP/G
                 (UTC) (F)     (DEG/KT/KT) (MB)
THOMAS PT LIGHT  2100   35 37  310/ 21/ 24 1008.8F
BALT KEY BRIDGE  2100   35     300/ 16/ 19 1008.2R
COVE POINT       2100   34     340/ 16/ 19 1007.8R
LEWISETTA        2100   35 38  320/ 14/ 18 1008.5R
SOLOMONS ISLAND  2100      38                N/A
PINEY POINT      2100          340/ 21/ 22   N/A

$$




USA.gov is the U.S. government's official web portal to all federal, state and local government web resources and services.